Regional Weather Roundup
Issued by NWS Grand Forks, ND

Home | Current Version | Previous Version | Text Only | Print | Product List | Glossary Off
Versions: 1 2 3 4 5 6 7 8 9 10 11 12 13 14 15 16 17 18 19 20 21 22 23 24 25 26 27 28 29 30 31 32 33 34 35 36 37 38 39 40 41 42 43 44 45 46 47 48 49 50

069
ASUS43 KFGF 121010
RWRFGF
PRAIRIE TO PINES  WEATHER ROUNDUP
NATIONAL WEATHER SERVICE EASTERN NORTH DAKOTA/GRAND FORKS ND
400 AM CST FRI FEB 12 2016

 **SATELLITE DATA USED TO AUGMENT SKY COVER AT AUTOMATED STATIONS**
 *****  WEATHER ACROSS EASTERN NORTH DAKOTA  *****

CITY           SKY/WX    TMP DP  RH WIND       PRES   REMARKS
GRAND FORKS    CLEAR      2  -7  66 N18       30.43R WCI -19
GRAND FRKS AFB CLEAR      1  -8  66 N18       30.44R WCI -20
DEVILS LAKE    CLOUDY    -3  -7  82 N12       30.43R WCI -21
FARGO          CLEAR      5  -4  66 N17       30.41R WCI -14
WAHPETON ARPT  CLOUDY     9   0  66 NW13      30.38R WCI  -7
$$

 ***** WEATHER ACROSS CENTRAL AND WESTERN NORTH DAKOTA  *****

CITY           SKY/WX    TMP DP  RH WIND       PRES   REMARKS
BISMARCK       CLOUDY    19  11  70 N8        30.40R WCI   9
MINOT          CLOUDY     4  -5  66 NW13      30.45R WCI -13
JAMESTOWN      CLOUDY     6   1  80 N14       30.39R WCI -11
MINOT AFB      CLOUDY     2  -5  74 NW3       30.46R
GARRISON         N/A      7   1  76 N7        30.42R WCI  -5
WILLISTON      CLOUDY    14   8  77 N15       30.44R WCI  -1
DICKINSON      CLOUDY    18  12  77 N9        30.33R WCI   7
HETTINGER      CLOUDY    22  19  89 NW6       30.34R FOG     WCI  14
$$

 *****  OTHER AIRPORT OBSERVATIONS IN OUR AREA  *****

CITY           SKY/WX    TMP DP  RH WIND       PRES   REMARKS
WALHALLA       FAIR       0  -8  71 N20G25    30.48R WCI -22
GRAFTON AIRPOR FAIR       0  -8  71 N20G25    30.47R WCI -22
VALLEY CITY AR FAIR       1   0  92 N10       30.41R WCI -14
CANDO          NOT AVBL
CAVALIER APRT  FAIR       0  -8  71 N16G22    30.47R WCI -21
GWINNER        CLOUDY    12   9  85 N15       30.38R WCI  -4
ROLLA          FAIR     -11 -17  77 NW10      30.42R WCI -30
 ***** THE ABOVE OBSERVATIONS ARE NON NWS ARE NOT QUALITY
       CONTROLLED AND MAY MIS-REPORT RAIN FOR SNOW...
$$

  *****  WEATHER ACROSS NORTHERN MINNESOTA  *****

CITY           SKY/WX    TMP DP  RH WIND       PRES   REMARKS
FLAG ISLAND    CLEAR     -9 -15  77 NW18      30.29R WCI -33
WARROAD        CLEAR     -8 -13  77 W8        30.33R WCI -23
ROSEAU         CLOUDY    -8 -13  77 NW10      30.35R WCI -26
HALLOCK        CLEAR     -2  -9  71 N14       30.43R WCI -21
THF RVR FALLS  CLEAR     -2 -15  55 NW14      30.36R WCI -21
BAUDETTE       CLEAR     -7 -14  71 NW15G24   30.26R WCI -28
WASKISH        CLEAR     -6  -9  84 NW7       30.27R WCI -20
CROOKSTON      CLEAR      0  -6  78 N17       30.42R WCI -21
STEPHEN NDAWN    N/A     -2  -9  71 N15         N/A  WCI -22
GREENBUSH NDAW   N/A     -8 -13  77 NW9         N/A  WCI -25
$$
  *****  WEATHER ACROSS CENTRAL AND WEST MINNESOTA  *****

CITY           SKY/WX    TMP DP  RH WIND       PRES   REMARKS
FOSSTON        CLEAR     -6  -9  84 NW7       30.32R WCI -20
BEMIDJI        CLEAR     -4  -8  81 NW10      30.26R WCI -21
PARK RAPIDS    CLEAR      1  -5  75 NW9       30.25R WCI -14
ELBOW LAKE     FAIR       7   2  82 NW13G20   30.33R WCI -10
WADENA         CLEAR      1  -2  85 NW10      30.26S WCI -14
DETROIT LAKES  CLEAR      3  -2  78 NW14      30.32R WCI -15
MOORHEAD       CLEAR      3  -2  78 N12       30.40R WCI -13
FERGUS FALLS   PTCLDY     5   1  85 N12G21    30.38R WCI -11
MORRIS MN      CLOUDY    10   7  85 N18       30.31R WCI  -8
STAPLES        CLEAR      3  -2  78 NW13      30.25R WCI -14
$$
  *****  WEATHER ELSEWHERE ACROSS MINNESOTA  *****

CITY           SKY/WX    TMP DP  RH WIND       PRES   REMARKS
DULUTH         PTCLDY     2  -5  72 NW15      30.11R WCI -17
INTRNTL FALLS  PTCLDY    -5 -11  75 NW12      30.20R WCI -23
ELY            PTCLDY    -2  -8  78 W10G18    30.09R WCI -19
CLOQUET        MOCLDY     3  -2  78 NW8       30.15R WCI -10
WHEATON        CLOUDY    12   9  85 NW14      30.38R WCI  -3
BRAINERD       CLEAR      5  -6  60 NW16      30.23R WCI -14
HIBBING        PTCLDY    -1  -7  75 NW18      30.15R WCI -22
ALEXANDRIA     CLEAR      4   0  83 NW9       30.27R WCI -10
SAINT CLOUD    CLEAR      5   0  79 NW10      30.24R WCI -10
MINNEAPOLIS    PTCLDY    13   6  74 NW13      30.23R WCI  -2
$$

  *****  WEATHER ACROSS SOUTH DAKOTA  *****

CITY           SKY/WX    TMP DP  RH WIND       PRES   REMARKS
SIOUX FALLS    CLOUDY    19  13  77 N13       30.30R WCI   6
BROOKINGS      CLOUDY    12   8  84 N15       30.29R WCI  -4
WATERTOWN      CLOUDY    10   5  80 NW9       30.30R WCI  -3
HURON          CLOUDY    15  10  80 N14       30.37R WCI   0
SISSETON         N/A     10   7  87 N13       30.36R WCI  -5
ABERDEEN       CLOUDY    15   8  73 N14       30.38R WCI   0
MITCHELL       CLOUDY    19  14  81 N15       30.36R WCI   5
PIERRE         CLOUDY    22  17  81 N12       30.35R WCI  10
MOBRIDGE       CLOUDY    21  16  81 MISG      30.34R
RAPID CITY     CLOUDY    31  28  89 NW3       30.28R
$$

  *****  SOME WEATHER IN NEARBY STATES *****

CITY           SKY/WX    TMP DP  RH WIND       PRES   REMARKS
GLASGOW MT     CLOUDY    24  19  81 E14       30.38R WCI  12
GREAT FALLS MT CLOUDY    32  29  88 N5        30.24S
CHEYENNE WY    CLOUDY    32  24  72 CALM      30.26S
SCOTTSBLUFF NE CLOUDY    30  26  85 NW6       30.26R WCI  24
OMAHA NE       CLOUDY    23  19  85 N15       30.29R WCI  10
DES MOINES IA  FLURRIES  20  16  84 NW8       30.23R WCI  10
DAVENPORT IA   CLOUDY    20  15  81 W8        30.19F WCI  10
CHICAGO IL     CLOUDY    19   8  62 W9        30.15F WCI   8
EAU CLAIRE WI  CLOUDY    13   6  74 W9        30.15S WCI   1
LA CROSSE WI   CLOUDY    14   7  73 NW5       30.19S WCI   6
$$

  *****  SOME NATIONAL WEATHER *****

CITY           SKY/WX    TMP DP  RH WIND       PRES   REMARKS
LA GUARDIA NY  CLEAR     18   0  45 NW14G21   30.26R WCI   4
RALEIGH NC     PTCLDY    26   4  38 E6        30.28F WCI  19
ATLANTA GA     CLOUDY    41  25  53 NE7       30.14R
NEW ORLEANS LA CLEAR     58  54  86 SW8       30.19R
OKLAHOMA CITY  CLOUDY    37  33  85 N7        30.20R
ALBUQUERQUE NM CLOUDY    40  20  44 NE6       30.36S
SALT LAKE CITY CLOUDY    29  27  92 S7        30.42F FOG     WCI  22
LOS ANGELES CA PTCLDY    60  41  49 CALM      30.10F
BOISE ID       PTCLDY    32  28  85 CALM      30.33R
SEATTLE WA     LGT RAIN  52  48  87 SE7       30.10S
$$

*** WEATHER ACROSS MANITOBA...SASKATCHEWAN AND ONTARIO ***
                ***ONTARIO***

CITY           SKY/WX    TMP DP  RH WIND       PRES   REMARKS
GERALDTON      LGT SNOW -17 -22  76 N6        30.01R DRFTSNOWWCI -31
THUNDER BAY    PTCLDY     1  -8  66 NW9G17    30.07R WCI -14
SIOUX LOOKOUT  FLURRIES -15 -22  70 N9G17     30.16R WCI -33
TORONTO        MOCLDY    12   3  67 SW12      30.05F WCI  -2
BIG TROUT LK   FLURRIES -29 -36  68 NW9       30.17R WCI -51
PICKLE LAKE    NOT AVBL
DRYDEN         LGT SNOW -11 -17  77 N9        30.17R WCI -29
KENORA         PTCLDY   -13 -17  84 N14G21    30.25R WCI -35
$$
                *** MANITOBA***

CITY           SKY/WX    TMP DP  RH WIND       PRES   REMARKS
BRANDON          N/A    -17 -20  83 NW8       30.49R WCI -34
DAUPHIN        MOCLDY   -11 -17  77 N8        30.58R WCI -28
ISLAND LAKE    CLEAR    -26 -31  75 W8        30.38R WCI -45
PILOT MOUND    NOT AVBL
THE PAS        CLEAR    -20 -26  76 NW12      30.63R WCI -42
THOMPSON       CLEAR    -26 -33  68 NW12G18   30.53R WCI -49
WINNIPEG       PTCLDY    -8 -17  65 N18G26    30.47R WCI -31
LYNN LAKE      CLEAR    -27 -35  68 NW8       30.58R WCI -48
CHURCHILL      CRYSTALS -22 -27  76 NW24G36   30.38R VSB 1/2 WCI -53
GILLAM         CLEAR    -27 -35  68 NW14      30.38R WCI -54
$$
                ***SASKATCHEWAN***

CITY           SKY/WX    TMP DP  RH WIND       PRES   REMARKS
ESTEVAN        NOT AVBL
KINDERSLEY     CLOUDY     9   1  72 E18       30.44S WCI -10
LLOYDMINSTER   CLEAR      0  -6  78 E9        30.48R WCI -16
PRINCE ALBERT  CLEAR    -20 -24  83 N2        30.61R
REGINA         CLEAR      0  -4  85 W3        30.51R
YORKTON        CLEAR    -15 -18  84 W10       30.52R WCI -35
N. BATTLEFORD  CLEAR     -6 -11  77 E8        30.56R WCI -21
LA RONGE       CLEAR    -26 -29  83 N2        30.66R
SASKATOON      CLEAR     -4  -8  84 NE7       30.58R WCI -18
SWIFT CURRENT  FLURRIES  10   9  92 E14       30.39R WCI  -5
$$
NOTE: THESE ARE AUTOMATED STATIONS WITH LIMITED QUALITY CONTROL
      "FAIR" INDICATES FEW OR NO CLOUDS BELOW 12,000 FEET WITH NO
      SIGNIFICANT WEATHER AND/OR OBSTRUCTIONS TO VISIBILITY.
      SKY/WX - SKY CONDITION AND SIGNIFICANT WEATHER.
      TMP - AIR TEMPERATURE.    DP   - DEWPOINT TEMPERATURE.
      RH  - RELATIVE HUMIDITY.  PRES - PRESSURE.
      HX  - HEAT INDEX.         WCI  - WIND CHILL INDEX.
$




USA.gov is the U.S. government's official web portal to all federal, state and local government web resources and services.